Preview of NWS' New Version of Forecast
This preview is not operational and should not be used for support decisions.

Regional Weather Roundup (RWR)

Issued by National Weather Service (NWS)

                            
000
ASUS43 KLSX 191257
RWRMO 

WEATHER SUMMARY FOR MISSOURI
NATIONAL WEATHER SERVICE SPRINGFIELD MO
700 AM CST TUE FEB 19 2019

NOTE: "FAIR" INDICATES FEW OR NO CLOUDS BELOW 12,000 FEET WITH NO
       SIGNIFICANT WEATHER AND/OR OBSTRUCTIONS TO VISIBILITY.
       CURRENT SKY AND/OR WEATHER CONDITIONS ARE NOT AVAILABLE FOR
       CHILLICOTHE AND FARMINGTON.

MOZ001>031-035>038-043-044-053-054-191400-
...NORTHERN AND WESTERN MISSOURI...
  
CITY           SKY/WX    TMP DP  RH WIND       PRES   REMARKS
KANSAS CTY INT CLOUDY    17  12  80 NE9       30.49S WCI   6          
LEE'S SUMMIT   CLOUDY    20  16  84 E8        30.48R WCI  10          
ST JOSEPH      CLOUDY    13  10  88 NE5       30.54R WCI   5          
CHILLICOTHE      N/A     20  15  81 NE5       30.55R WCI  13          
     
$$
MOZ066>068-077>081-088>096-101>105-191400-
...SOUTHWEST MISSOURI...
  
CITY           SKY/WX    TMP DP  RH WIND       PRES   REMARKS
SPRINGFIELD    CLOUDY    26  18  71 E12       30.39F WCI  16          
JOPLIN         CLOUDY    27  20  75 E8        30.39S WCI  19          
BRANSON        CLOUDY    27  21  80 E9        30.40S WCI  17          
               
$$
MOZ032>034-039>042-045>050-055>058-069>072-191400-
...CENTRAL MISSOURI...  
  
CITY           SKY/WX    TMP DP  RH WIND       PRES   REMARKS
COLUMBIA       NOT AVBL                                               
JEFFERSON CITY PTCLDY    22  16  78 CALM      30.55R                  
ROLLA          CLOUDY    22  16  78 E7        30.50R WCI  13          
SEDALIA        CLOUDY    21  17  84 E7        30.50F WCI  12          
WARRENSBURG    PTCLDY    19  18  93 NE3       30.51R                  
               
$$
MOZ051-052-059>065-191400-
...EAST CENTRAL MISSOURI...
  
CITY           SKY/WX    TMP DP  RH WIND       PRES   REMARKS
ST LOUIS INTL  CLOUDY    25  19  78 E8        30.55F WCI  16          
                   
$$
MOZ072>076-082>087-097>100-106>115-191400-
...SOUTH CENTRAL AND SOUTHEAST MISSOURI...
  
CITY           SKY/WX    TMP DP  RH WIND       PRES   REMARKS
CAPE GIRARDEAU FAIR      30  22  72 NE14      30.53F WCI  19          
POPLAR BLUFF   FAIR      29  24  82 NE9       30.52S WCI  20          
WEST PLAINS    CLOUDY    26  20  77 E9        30.45R WCI  17          
                                       
$$